Wind_Speed
13 13 14 13 14 13 14 15 15 15 15 15 15 16 17 18 19 19 19 19 20 20 19 18 17 16 15 15 15 15 15 15 15 15 16 16 16 16 16 16 16 16 16
14 15 14 14 14 14 14 14 15 15 16 16 16 16 16 16 18 19 20 21 21 21 22 22 21 20 20 19 18 18 17 16 16 16 16 17 16 17 17 17 18 18 17
15 15 15 15 15 15 14 13 13 14 15 16 17 17 17 16 16 16 17 18 19 21 22 22 23 23 22 22 20 19 18 18 17 17 17 17 18 18 18 18 18 18 19
17 17 16 16 16 17 16 16 15 15 15 15 16 17 17 18 18 18 18 18 18 19 20 20 20 20 20 19 19 18 18 18 18 19 19 18 18 18 18 17 18 19 17
18 18 16 16 17 16 14 14 14 13 14 15 15 16 17 18 18 19 20 20 21 21 21 20 20 19 19 18 18 18 19 19 19 20 20 19 18 18 18 19 19 18 16
20 19 17 16 16 16 15 15 15 16 16 17 17 18 19 19 19 20 20 20 21 22 23 23 23 22 21 21 20 20 20 20 20 20 20 20 20 20 21 21 20 19 19
21 19 18 17 17 18 18 18 18 18 19 20 22 21 20 19 20 19 19 19 20 21 22 22 22 21 21 21 21 21 21 20 19 20 21 21 21 22 22 22 21 22 22
22 21 20 20 21 22 22 22 20 21 22 22 20 20 19 19 18 18 18 17 18 19 21 21 21 21 21 21 20 20 20 20 20 20 20 21 21 21 22 23 23 24 25
23 24 24 25 25 25 26 25 25 23 23 23 21 20 20 18 17 17 17 18 19 20 20 20 20 20 21 20 20 21 21 21 20 21 21 21 21 21 22 24 25 27 29
27 28 29 28 28 29 29 28 28 27 26 24 23 20 20 19 19 19 19 20 19 20 20 20 20 20 20 21 22 22 21 20 20 20 20 19 20 21 22 24 25 28 29
29 30 30 30 31 30 31 31 30 29 26 25 25 23 22 21 21 21 21 21 21 20 20 21 21 21 22 22 21 21 20 20 20 20 22 23 23 23 24 26 26 26 26
31 32 32 32 33 32 30 31 30 29 27 26 27 27 25 24 24 23 23 23 21 22 22 22 22 23 24 24 22 22 22 22 22 22 23 23 25 25 25 25 24 24 25
29 30 31 31 31 31 30 29 29 28 28 28 28 28 28 27 27 25 24 24 23 23 23 24 25 26 26 25 24 24 24 25 25 25 25 24 25 25 25 24 24 26 29
28 29 30 30 30 30 30 30 29 29 30 30 31 30 30 29 28 28 26 25 25 26 25 26 27 28 28 28 28 29 28 28 27 25 25 24 24 23 24 27 30 32 33
29 31 31 30 30 30 31 31 31 31 31 31 32 32 32 31 30 29 28 27 27 28 27 28 29 30 31 30 31 31 31 31 30 28 26 26 26 27 28 31 32 33 32
30 30 30 29 31 31 32 32 34 34 34 35 34 33 33 34 31 31 30 30 30 29 31 31 32 32 32 32 33 33 34 34 32 30 28 28 28 30 32 34 31 26 22
31 31 31 31 30 31 32 33 34 36 36 36 37 36 35 34 35 35 34 33 34 33 34 34 35 35 34 34 35 35 35 35 33 32 31 30 30 32 33 27 22 20 20
34 34 34 33 32 33 34 35 37 37 38 39 38 37 37 39 38 38 39 36 37 37 36 37 38 37 35 36 36 36 36 35 34 33 33 32 32 32 26 23 21 20 19
37 37 36 35 34 35 35 36 38 39 39 39 40 40 39 41 42 43 42 41 42 41 40 41 41 40 39 37 37 36 36 36 35 34 34 34 33 29 25 23 22 21 22
38 37 36 36 36 36 38 37 38 39 41 41 42 42 43 44 44 45 46 46 46 47 45 45 45 45 44 41 40 38 37 37 37 36 35 35 33 30 27 27 26 26 26
38 38 38 38 38 38 40 41 39 41 42 44 45 46 48 48 48 47 47 48 48 48 48 49 50 48 47 46 44 41 41 39 37 36 37 37 33 33 32 32 32 31 31
37 38 38 39 40 41 42 43 43 42 43 44 46 48 49 49 51 51 50 51 51 51 51 51 54 53 53 49 48 47 44 42 38 38 38 38 37 37 37 36 36 36 36
39 39 39 40 41 43 44 44 44 44 43 43 44 47 51 54 56 55 54 54 55 55 53 53 55 54 55 54 52 50 48 45 43 42 42 41 41 42 41 39 37 37 37
40 41 41 41 42 42 42 42 43 44 44 44 46 48 50 53 56 59 58 57 57 57 54 55 56 54 54 54 55 52 50 48 45 45 46 44 47 47 44 43 41 40 40
41 41 41 41 41 40 41 41 43 43 44 46 47 48 49 51 53 55 58 60 59 59 58 59 57 57 58 58 55 55 54 52 50 48 49 50 56 54 50 49 50 43 42
39 39 39 40 40 40 40 41 41 43 44 46 46 48 49 50 52 53 55 57 59 61 62 62 62 60 60 60 60 58 55 56 54 53 51 49 48 47 43 44 42 41 42
Wind_Direction
245 252 255 261 263 267 269 270 271 274 277 279 284 286 286 284 282 283 283 284 283 285 285 288 287 286 286 289 291 291 291 291 288 287 289 291 292 292 293 296 296 296 298
241 244 251 254 258 264 270 272 277 277 277 278 281 280 280 281 281 281 282 283 283 280 280 282 284 286 288 288 288 289 287 288 291 293 293 294 294 295 296 297 298 298 299
246 248 252 257 263 271 276 281 282 281 279 280 280 282 284 285 286 286 286 284 285 285 282 282 283 287 289 291 295 295 295 293 292 292 292 293 293 294 294 294 293 295 298
248 252 260 265 267 269 271 277 281 283 285 286 287 286 287 288 289 290 291 293 294 292 291 289 288 289 291 293 292 294 296 295 294 293 292 292 293 291 290 290 291 294 293
247 253 257 262 264 268 270 275 278 281 283 281 283 285 286 287 288 289 290 291 295 296 295 295 295 294 293 294 295 294 293 293 292 292 292 289 287 285 286 288 290 288 287
245 251 252 253 255 259 262 266 270 274 278 281 282 284 286 286 285 286 285 287 288 290 291 292 293 293 293 292 291 291 289 288 287 288 289 292 292 289 289 289 288 285 285
245 246 248 251 256 261 263 264 270 274 278 283 285 283 282 281 281 282 283 282 282 283 285 286 286 289 292 293 294 294 293 290 291 293 295 295 293 290 290 290 287 286 286
237 241 246 252 257 261 261 264 269 274 276 277 276 276 274 275 278 281 282 284 286 285 286 287 289 290 291 292 292 295 294 295 294 295 294 293 292 291 290 287 287 286 289
233 240 246 252 257 261 267 273 276 275 275 274 270 269 272 275 276 280 283 285 287 289 288 288 287 287 288 287 288 290 291 291 290 293 294 295 294 290 289 287 286 286 287
236 240 247 253 259 264 269 272 275 275 273 273 275 274 274 274 276 278 279 283 288 288 290 290 289 286 283 283 283 284 288 291 292 293 292 293 293 294 293 290 289 289 291
249 255 259 262 265 271 276 278 277 275 276 278 279 278 275 274 275 277 280 284 287 287 287 289 289 286 283 282 283 284 287 289 290 292 294 295 293 293 293 294 294 294 295
252 258 263 268 271 272 273 275 276 278 280 278 278 278 277 275 275 275 277 279 283 287 291 288 284 281 281 283 283 284 285 286 287 290 292 294 293 294 292 293 295 297 300
253 256 259 262 265 268 269 270 273 278 280 281 280 279 279 276 276 277 277 280 281 283 283 283 282 282 283 282 282 280 281 282 284 287 288 291 293 295 294 295 297 297 299
248 251 253 255 257 261 264 268 273 275 277 280 280 281 281 278 277 277 278 279 279 280 280 281 282 282 282 282 282 282 280 281 284 288 288 289 289 290 291 293 296 297 298
243 247 251 254 259 263 266 269 271 272 274 276 279 280 279 280 280 281 280 279 279 280 281 280 280 280 281 281 280 279 280 280 282 285 285 287 286 286 288 291 295 296 297
244 249 254 259 262 265 268 270 271 273 273 273 273 275 278 278 280 281 281 281 281 280 280 280 279 279 281 280 278 278 278 279 281 281 281 281 282 284 288 293 295 296 300
250 252 253 255 261 267 272 274 275 275 275 274 275 276 273 272 275 276 279 281 281 279 280 281 281 283 283 281 279 278 278 278 279 279 278 278 282 286 290 289 290 292 297
246 248 252 257 261 264 269 272 275 278 279 278 278 276 276 276 274 275 276 276 277 278 278 278 279 281 279 280 281 281 279 278 277 277 278 279 282 285 282 282 283 287 292
247 251 255 261 267 271 273 275 277 278 279 282 280 280 278 276 276 274 273 271 272 273 274 274 274 275 275 275 277 277 278 277 276 275 275 277 279 276 274 275 278 283 288
249 254 260 264 265 267 269 271 276 279 282 279 278 278 275 275 276 276 276 276 274 275 275 274 274 273 274 274 273 273 273 272 272 273 274 275 276 270 271 274 276 281 285
249 254 257 262 266 269 272 273 274 276 277 280 279 278 278 278 277 277 276 275 275 273 272 273 274 274 275 274 273 272 270 271 272 272 272 273 272 269 271 273 276 279 282
251 252 258 263 267 271 273 275 276 273 276 277 279 280 279 278 276 275 274 274 274 273 272 271 271 271 271 272 271 271 271 270 271 269 270 270 271 270 271 273 276 280 282
257 260 263 267 270 272 274 275 276 276 273 272 272 272 274 275 276 276 275 273 271 271 270 269 268 268 269 269 268 268 269 271 268 268 270 270 270 269 270 272 273 276 281
264 266 269 271 272 273 275 275 275 276 277 275 272 269 269 271 274 277 277 275 273 272 270 267 265 264 265 267 267 267 267 267 266 268 270 269 266 266 268 267 269 272 275
266 269 271 272 272 273 273 273 273 273 272 271 271 272 272 271 271 271 273 275 275 273 270 267 266 266 265 264 262 264 265 267 268 270 271 271 277 275 266 271 268 268 272
265 267 269 272 274 275 275 275 275 276 277 276 277 278 278 275 272 271 271 269 268 270 271 270 267 265 265 263 262 260 262 265 267 271 271 274 278 281 279 281 272 272 275
Height
5873 5874 5875 5876 5877 5878 5878 5879 5878 5879 5879 5879 5879 5879 5879 5879 5879 5879 5879 5879 5879 5879 5879 5879 5879 5879 5878 5878 5877 5877 5876 5876 5875 5875 5874 5874 5874 5874 5873 5872 5872 5871 5871
5871 5871 5873 5874 5875 5876 5877 5877 5877 5878 5877 5877 5877 5877 5877 5877 5877 5877 5877 5877 5877 5877 5877 5877 5876 5876 5876 5876 5875 5874 5874 5874 5873 5873 5873 5872 5872 5871 5871 5871 5871 5870 5869
5867 5869 5870 5871 5872 5873 5874 5874 5875 5875 5875 5875 5876 5875 5875 5875 5876 5875 5875 5875 5874 5874 5874 5874 5874 5874 5873 5873 5873 5872 5872 5871 5871 5870 5870 5869 5869 5869 5868 5868 5868 5867 5866
5865 5866 5867 5868 5869 5870 5871 5871 5872 5872 5873 5873 5873 5873 5873 5873 5873 5873 5873 5873 5873 5872 5871 5871 5871 5871 5871 5870 5869 5869 5869 5869 5868 5868 5867 5866 5866 5866 5865 5865 5864 5864 5863
5862 5863 5864 5866 5866 5867 5868 5869 5870 5871 5871 5872 5871 5871 5871 5871 5871 5871 5871 5870 5870 5870 5870 5869 5869 5868 5868 5867 5867 5866 5865 5865 5865 5864 5864 5863 5863 5862 5862 5862 5861 5861 5860
5859 5860 5861 5863 5864 5865 5866 5867 5868 5868 5868 5868 5869 5869 5869 5869 5869 5868 5868 5867 5867 5868 5867 5867 5866 5865 5865 5865 5864 5863 5863 5862 5861 5861 5861 5860 5860 5859 5859 5859 5858 5858 5857
5856 5857 5858 5860 5861 5862 5863 5864 5865 5865 5866 5866 5866 5866 5866 5866 5865 5865 5865 5865 5864 5865 5864 5864 5863 5862 5862 5861 5861 5860 5860 5859 5859 5858 5858 5857 5856 5856 5856 5856 5856 5855 5854
5853 5854 5855 5856 5857 5858 5860 5861 5862 5862 5863 5863 5863 5862 5862 5862 5862 5863 5863 5862 5862 5861 5861 5861 5860 5860 5859 5858 5858 5858 5857 5857 5856 5855 5854 5854 5853 5853 5853 5853 5852 5852 5851
5849 5851 5851 5853 5854 5855 5856 5857 5858 5858 5858 5859 5860 5860 5860 5860 5860 5860 5859 5859 5859 5858 5858 5857 5857 5856 5856 5855 5855 5854 5853 5853 5852 5851 5851 5850 5850 5849 5849 5849 5848 5847 5846
5847 5848 5849 5850 5851 5853 5853 5853 5854 5854 5854 5855 5855 5857 5857 5857 5856 5856 5856 5856 5856 5855 5855 5854 5853 5853 5852 5852 5851 5850 5850 5850 5849 5848 5848 5847 5846 5845 5845 5844 5844 5843 5842
5843 5844 5845 5846 5848 5849 5850 5850 5851 5851 5851 5851 5851 5852 5853 5852 5852 5852 5852 5852 5852 5852 5852 5851 5850 5849 5848 5848 5847 5847 5846 5846 5845 5845 5844 5844 5843 5842 5841 5840 5839 5838 5837
5839 5841 5842 5842 5843 5845 5845 5846 5846 5846 5848 5848 5848 5848 5848 5848 5849 5849 5849 5849 5848 5848 5847 5847 5846 5845 5845 5844 5844 5843 5842 5842 5841 5841 5840 5839 5837 5837 5836 5836 5834 5833 5832
5834 5836 5837 5838 5839 5840 5840 5840 5841 5842 5842 5842 5843 5843 5843 5844 5844 5845 5844 5844 5844 5843 5843 5842 5841 5840 5840 5840 5840 5839 5838 5838 5837 5836 5835 5835 5833 5832 5831 5831 5830 5829 5827
5830 5831 5833 5834 5834 5835 5835 5835 5836 5837 5837 5837 5838 5839 5838 5839 5840 5840 5840 5839 5839 5838 5838 5838 5837 5835 5835 5835 5834 5834 5834 5833 5832 5831 5830 5829 5829 5828 5827 5826 5825 5823 5822
5825 5826 5828 5828 5829 5830 5830 5831 5831 5831 5832 5832 5833 5833 5833 5834 5835 5835 5835 5834 5834 5833 5833 5832 5831 5830 5830 5829 5829 5828 5828 5827 5827 5826 5825 5824 5824 5823 5823 5821 5819 5817 5815
5820 5822 5822 5823 5823 5824 5826 5827 5828 5829 5828 5828 5828 5828 5828 5829 5829 5829 5829 5829 5829 5828 5827 5826 5825 5825 5825 5823 5823 5822 5822 5821 5821 5820 5820 5819 5817 5817 5816 5815 5813 5811 5810
5812 5814 5816 5817 5820 5822 5822 5823 5823 5823 5823 5823 5822 5823 5823 5823 5822 5822 5823 5822 5822 5822 5820 5820 5819 5819 5819 5818 5817 5816 5815 5815 5814 5814 5813 5813 5812 5811 5810 5809 5807 5806 5805
5807 5808 5810 5813 5815 5816 5817 5817 5817 5816 5816 5816 5817 5817 5817 5816 5816 5815 5815 5817 5814 5814 5814 5813 5813 5812 5812 5812 5812 5811 5809 5808 5808 5808 5807 5807 5806 5805 5804 5803 5802 5801 5800
5802 5804 5806 5807 5809 5810 5810 5810 5809 5810 5811 5810 5809 5810 5810 5809 5808 5808 5807 5807 5807 5806 5806 5806 5805 5804 5804 5804 5804 5803 5802 5802 5801 5801 5800 5799 5798 5798 5797 5797 5796 5795 5795
5797 5799 5800 5801 5802 5803 5802 5804 5804 5803 5802 5802 5801 5801 5801 5800 5800 5799 5800 5799 5800 5799 5799 5798 5797 5796 5796 5796 5795 5795 5795 5794 5794 5794 5794 5792 5791 5791 5792 5791 5790 5789 5788
5791 5793 5794 5795 5795 5795 5796 5796 5798 5797 5794 5793 5793 5792 5791 5791 5791 5790 5790 5789 5789 5790 5790 5789 5788 5788 5788 5788 5788 5788 5786 5787 5787 5787 5786 5785 5784 5784 5784 5784 5782 5782 5781
5783 5786 5787 5788 5788 5788 5788 5788 5788 5788 5787 5785 5784 5782 5782 5781 5779 5779 5780 5779 5778 5778 5779 5779 5778 5778 5778 5778 5779 5778 5779 5779 5779 5777 5777 5777 5777 5776 5775 5775 5774 5774 5773
5776 5778 5779 5780 5781 5781 5780 5779 5779 5778 5779 5777 5776 5774 5771 5768 5767 5767 5767 5768 5766 5766 5768 5767 5767 5766 5766 5767 5767 5768 5768 5770 5769 5769 5768 5768 5768 5767 5766 5766 5764 5764 5763
5767 5769 5771 5771 5772 5772 5771 5770 5769 5768 5767 5767 5766 5764 5763 5760 5758 5755 5754 5755 5755 5755 5755 5755 5755 5755 5754 5756 5755 5757 5757 5758 5758 5760 5758 5758 5757 5757 5755 5754 5753 5753 5752
5759 5761 5761 5762 5762 5761 5761 5760 5759 5757 5756 5754 5753 5752 5751 5751 5749 5746 5743 5741 5741 5742 5743 5742 5742 5743 5743 5743 5744 5744 5745 5746 5747 5748 5748 5747 5744 5743 5743 5743 5741 5741 5740
5751 5752 5752 5752 5752 5751 5750 5749 5748 5747 5745 5744 5742 5741 5739 5738 5737 5735 5732 5730 5728 5727 5727 5728 5728 5729 5729 5730 5732 5732 5734 5735 5735 5735 5735 5736 5734 5734 5732 5731 5730 5729 5728